Location: Castillon
(43.0896°N, 0.2156°E)
Time: 18:57:47
(UTC+00:00)

Meteor 2-5 Rocket - Pass Details

Date: 16 June 2021
Orbit: 833 x 911 km, 81.2° (Epoch: 31 July)

Event Time Altitude Azimuth Distance (km) Brightness Sun altitude
Exits shadow 22:24:27 32° 192° (SSW) 1,410 4.4 -20.0°
Maximum altitude 22:27:10 85° 278° (W) 846 3.6 -20.2°
Drops below altitude 10° 22:32:47 10° 9° (N) 2,475 7.0 -20.6°
Sets 22:35:14 0° 10° (N) 3,424 7.8 -20.7°
